[[{"header":{"parameterUnit":"m.s-1","parameterCategory":2,"la1":30.2991,"la2":30.254,"lo1":-89.0895,"lo2":-89.0444,"dy":0.0017,"dx":0.0017,"nx":28,"ny":28,"refTime":"2025-12-15T03:00:00:Z","depth":"0","parameterNumber":2,"parameterNumberName":"U-component_of_CURRENTS"},"data":[0,0,0,0,0,0,0,0,0,0,0,0,0,0,0,0,0,0,0,0,0,0,0,0,0,0,0,0,0,0,0,0,0,0,0,0,0,0,0,0,0,0,0,0,0,0,0,0,0,0,0,0,0,0,0,0,0,0,0.2675,0.2675,0,0.2679,0.2678,0.2678,0.2668,0.2668,0.2668,0.2668,0.2629,0.2628,0.2627,0,0,0,0,0,0,0,0,0,0,0,0,0,0.2621,0.2622,0.2675,0.2675,0.2675,0.2679,0.2678,0.2678,0.2668,0.2668,0.2668,0.2668,0.2629,0.2628,0.2627,0,0,0,0,0,0,0,0,0,0,0,0,0,0.2634,0.2623,0.2675,0.2673,0.2673,0.2679,0.2678,0.2678,0.2668,0.2668,0.2668,0.2668,0.263,0.2628,0.2627,0.2618,0,0,0.2622,0.2621,0,0,0,0,0,0,0,0,0.2633,0.2636,0.2673,0.2673,0.2673,0.2676,0.2645,0.2657,0.2668,0.2667,0.2668,0.2668,0.2643,0.264,0.2637,0.2616,0.2615,0.2622,0.2621,0.262,0.262,0,0,0,0,0,0,0,0.2633,0.2635,0.2673,0.2673,0.2674,0.266,0.2661,0.2647,0.2652,0.2667,0.2667,0.2672,0.2642,0.2639,0.2636,0.2614,0.2622,0.2621,0.262,0.2619,0.2626,0.2627,0,0,0,0,0,0,0.264,0.2635,0.2673,0.2674,0.2656,0.2661,0.2663,0.2672,0.2653,0.2651,0.2673,0.2672,0.2641,0.2638,0.2635,0.2662,0.262,0.2619,0.2618,0.2625,0.2627,0.2628,0,0,0,0,0,0,0.2639,0.2644,0.2673,0.2656,0.2659,0.2663,0.2673,0.2673,0.2674,0.2658,0.2655,0.2675,0.2641,0.2637,0.2633,0.2658,0.2618,0.2617,0.2624,0.2626,0.2627,0.2691,0,0,0,0,0,0,0.2638,0.2644,0.2648,0.2657,0.2661,0.2685,0.2673,0.2673,0.2678,0.2678,0.2659,0.2655,0.2641,0.2636,0.2632,0.2656,0.2616,0.2623,0.2625,0.2627,0.2687,0.2694,0.2701,0,0,0,0,0,0.2636,0.2644,0.2648,0.2653,0.2669,0.2686,0.2687,0.2686,0.2679,0.2685,0.2674,0.2656,0.2647,0.2635,0.263,0.2654,0.2622,0.2624,0.2627,0.2684,0.2693,0.27,0,0,0,0,0,0,0.2619,0.2645,0.2649,0.2664,0.2679,0.2686,0.2691,0.2689,0.2685,0.2684,0.2663,0.2658,0.267,0.265,0.2638,0.2664,0.2634,0.2636,0.268,0.2688,0.2694,0.2706,0.2614,0,0,0,0,0,0.262,0.2635,0.2656,0.2668,0.2679,0.2685,0.2689,0.2694,0.2694,0.2692,0.2681,0.2672,0.2676,0.2672,0.2668,0.2672,0.2681,0.2687,0.2694,0.2699,0.2706,0.275,0.2761,0.2636,0.2636,0.2636,0,0,0.2615,0.2632,0.264,0.2666,0.2676,0.2694,0.2687,0.2703,0.2717,0.2688,0.2696,0.2694,0.2683,0.2698,0.2702,0.2684,0.2741,0.2702,0.2707,0.2711,0.2754,0.2766,0.2777,0.2638,0.2637,0.2637,0,0,0.2618,0.2633,0.2649,0.2665,0.2691,0.2701,0.2708,0.2723,0.273,0.274,0.2733,0.2748,0.2734,0.2746,0.2746,0.2785,0.2778,0.2781,0.2819,0.2861,0.2872,0.2882,0.2916,0.2928,0.278,0.2781,0.2781,0,0.2613,0.2636,0.2655,0.2675,0.2691,0.2706,0.2727,0.2738,0.2748,0.2762,0.275,0.2771,0.2762,0.2797,0.2814,0.2802,0.2819,0.2789,0.2871,0.2881,0.289,0.2922,0.2935,0.2784,0.2784,0.2783,0.2783,0,0.2629,0.2646,0.2659,0.2693,0.2712,0.2733,0.276,0.278,0.2789,0.2801,0.2838,0.2838,0.2853,0.2859,0.2845,0.2906,0.2897,0.2879,0.2853,0.2907,0.2937,0.2949,0.2789,0.2788,0.2787,0.2786,0,0,0.2614,0.2663,0.2663,0.2679,0.2725,0.2739,0.2781,0.2821,0.2846,0.2866,0.2905,0.2926,0.2934,0.2936,0.2934,0.2969,0.3049,0.2952,0.2953,0.2989,0.3144,0.3043,0.3046,0.3047,0.3049,0.3051,0.3142,0,0.262,0.2654,0.2683,0.2712,0.273,0.277,0.2803,0.2842,0.2875,0.2914,0.2946,0.2975,0.2961,0.2976,0.3014,0.3033,0.3082,0.3026,0.3083,0.3084,0.2992,0.3057,0.285,0.2905,0.3154,0.3156,0.3157,0,0.2616,0.2643,0.2673,0.2721,0.2734,0.2755,0.2817,0.2849,0.2919,0.2947,0.2999,0.3025,0.3085,0.3064,0.3146,0.311,0.3141,0.3157,0.3161,0.3052,0.3006,0.289,0.2917,0.2824,0.3175,0.3174,0.3173,0,0.2577,0.2628,0.2651,0.2666,0.2727,0.2751,0.2785,0.2852,0.2886,0.297,0.3012,0.3081,0.3114,0.3171,0.321,0.3188,0.3297,0.3268,0.3216,0.3209,0.3035,0.3007,0.2976,0.3352,0.3351,0.3351,0.3351,0,0.256,0.2575,0.2629,0.2636,0.2668,0.2717,0.2757,0.2809,0.2883,0.2934,0.3017,0.307,0.3145,0.3214,0.3246,0.3262,0.3331,0.3239,0.3231,0.3049,0.3024,0.2933,0.2909,0.3355,0.3354,0.3353,0.3353,0,0.251,0.2545,0.257,0.263,0.2645,0.2662,0.2729,0.2766,0.284,0.2917,0.2951,0.3068,0.315,0.3227,0.3315,0.3287,0.3215,0.3324,0.31,0.3063,0.2874,0.2861,0.2776,0.2692,0.3264,0.3263,0.3261,0,0.2486,0.2493,0.2548,0.2564,0.2589,0.2621,0.2654,0.2729,0.2774,0.2909,0.2948,0.3062,0.3127,0.321,0.3184,0.322,0.3167,0.305,0.2962,0.2847,0.2828,0.2767,0.2698,0.277,0.2764,0.276,0.2756,0,0.2447,0.2466,0.2494,0.252,0.2548,0.2576,0.2625,0.265,0.2754,0.2815,0.2902,0.2965,0.304,0.2955,0.2988,0.2984,0.2851,0.2956,0.2897,0.2489,0.2361,0.2279,0.2738,0.2716,0.272,0.2723,0.2725,0.2727,0.2419,0.2423,0.2453,0.2468,0.25,0.2511,0.2488,0.2556,0.2589,0.2633,0.2772,0.2771,0.2746,0.2734,0.2722,0.2517,0.2595,0.2395,0.241,0.2376,0.2214,0.2581,0.2506,0.2508,0.2511,0.2513,0.2515,0,0.2366,0.2376,0.2398,0.24,0.2382,0.2421,0.2449,0.24,0.2385,0.2463,0.2494,0.2406,0.2303,0.2278,0.2099,0.1978,0.1911,0.1917,0.178,0.1759,0.2125,0.2017,0.1757,0.1757,0.1757,0.1757,0.1757,0.1757,0.2341,0.2327,0.2326,0.2262,0.2253,0.2175,0.215,0.2115,0.2123,0.2038,0.1959,0.1978,0.1978,0.1841,0.1651,0.1602,0.1497,0.1384,0.1474,0.1716,0.1761,0.1804,0.1697,0.1374,0.1373,0.0977,0.0974,0.0972]},{"header":{"parameterUnit":"m.s-1","parameterCategory":2,"la1":30.2991,"la2":30.254,"lo1":-89.0895,"lo2":-89.0444,"dy":0.0017,"dx":0.0017,"nx":28,"ny":28,"refTime":"2025-12-15T03:00:00:Z","depth":"0","parameterNumber":3,"parameterNumberName":"V-component_of_CURRENTS"},"data":[0,0,0,0,0,0,0,0,0,0,0,0,0,0,0,0,0,0,0,0,0,0,0,0,0,0,0,0,0,0,0,0,0,0,0,0,0,0,0,0,0,0,0,0,0,0,0,0,0,0,0,0,0,0,0,0,0,0,-0.0232,-0.0233,0,-0.0296,-0.0297,-0.0297,-0.0332,-0.0332,-0.0332,-0.0333,-0.038,-0.0381,-0.0382,0,0,0,0,0,0,0,0,0,0,0,0,0,-0.0158,-0.0159,-0.0232,-0.0233,-0.0234,-0.0296,-0.0297,-0.0297,-0.0332,-0.0332,-0.0333,-0.0333,-0.038,-0.0381,-0.0382,0,0,0,0,0,0,0,0,0,0,0,0,0,-0.0201,-0.0159,-0.0232,-0.026,-0.0263,-0.0296,-0.0297,-0.0298,-0.0332,-0.0332,-0.0333,-0.0333,-0.0379,-0.0381,-0.0382,-0.0385,0,0,-0.0387,-0.0388,0,0,0,0,0,0,0,0,-0.0199,-0.0204,-0.0255,-0.0258,-0.0262,-0.0308,-0.0288,-0.0327,-0.0332,-0.0304,-0.0333,-0.0333,-0.0355,-0.0359,-0.0368,-0.0387,-0.0389,-0.0387,-0.0388,-0.0389,-0.0389,0,0,0,0,0,0,0,-0.0196,-0.0201,-0.0256,-0.0256,-0.026,-0.0276,-0.0282,-0.0296,-0.0325,-0.0307,-0.031,-0.0319,-0.0357,-0.0366,-0.0369,-0.039,-0.0387,-0.0389,-0.039,-0.039,-0.0417,-0.0417,0,0,0,0,0,0,-0.019,-0.0199,-0.0254,-0.0258,-0.0232,-0.0277,-0.0284,-0.0291,-0.0326,-0.0332,-0.0319,-0.0321,-0.0364,-0.0367,-0.0371,-0.0374,-0.0389,-0.039,-0.0391,-0.0417,-0.0417,-0.0417,0,0,0,0,0,0,-0.0188,-0.0194,-0.0251,-0.0231,-0.024,-0.0278,-0.0286,-0.0292,-0.0301,-0.0336,-0.0341,-0.0321,-0.0364,-0.0369,-0.0381,-0.0376,-0.0391,-0.0393,-0.0417,-0.0417,-0.0417,-0.0381,0,0,0,0,0,0,-0.0186,-0.0193,-0.0192,-0.0231,-0.0241,-0.0265,-0.0286,-0.0294,-0.0308,-0.031,-0.0339,-0.0344,-0.0365,-0.0378,-0.0383,-0.0378,-0.0394,-0.0418,-0.0417,-0.0417,-0.0382,-0.0379,-0.0376,0,0,0,0,0,-0.0183,-0.0181,-0.0191,-0.0198,-0.0239,-0.0265,-0.0271,-0.0298,-0.0307,-0.0307,-0.0328,-0.0343,-0.0379,-0.0379,-0.0384,-0.038,-0.0418,-0.0417,-0.0417,-0.0383,-0.038,-0.0376,0,0,0,0,0,0,-0.0149,-0.0186,-0.0197,-0.0207,-0.0231,-0.0271,-0.0274,-0.0293,-0.031,-0.0311,-0.034,-0.0346,-0.0356,-0.0372,-0.0372,-0.0387,-0.0401,-0.0401,-0.0374,-0.037,-0.0367,-0.0345,-0.0395,0,0,0,0,0,-0.014,-0.0146,-0.0185,-0.019,-0.02,-0.0235,-0.0247,-0.0267,-0.0291,-0.0299,-0.032,-0.0341,-0.0358,-0.0366,-0.0384,-0.0389,-0.0381,-0.039,-0.0387,-0.0385,-0.037,-0.0357,-0.0352,-0.0415,-0.0415,-0.0415,0,0,-0.013,-0.0149,-0.0153,-0.0182,-0.0202,-0.0209,-0.0242,-0.0258,-0.0262,-0.03,-0.0306,-0.0331,-0.0357,-0.0367,-0.0373,-0.0379,-0.0361,-0.0384,-0.0382,-0.0368,-0.0356,-0.035,-0.0344,-0.0415,-0.0415,-0.0415,0,0,-0.0106,-0.0126,-0.0121,-0.0137,-0.0165,-0.0187,-0.0189,-0.0226,-0.0239,-0.0254,-0.0281,-0.0299,-0.0327,-0.0343,-0.0355,-0.0345,-0.0347,-0.0355,-0.0321,-0.031,-0.0304,-0.0299,-0.027,-0.0263,-0.0353,-0.0353,-0.0353,0,-0.009,-0.009,-0.0122,-0.012,-0.0127,-0.0172,-0.0166,-0.0187,-0.0223,-0.0225,-0.0249,-0.0279,-0.0313,-0.0311,-0.032,-0.0337,-0.0324,-0.0333,-0.0305,-0.03,-0.0295,-0.0267,-0.0259,-0.0351,-0.0351,-0.0351,-0.0351,0,-0.0061,-0.0061,-0.0059,-0.0068,-0.008,-0.0084,-0.0119,-0.0127,-0.0152,-0.0175,-0.0183,-0.0226,-0.0241,-0.0262,-0.0295,-0.0279,-0.0277,-0.0302,-0.031,-0.0286,-0.0258,-0.0251,-0.0348,-0.0349,-0.035,-0.035,0,0,-0.002,-0.0035,-0.0032,-0.0021,-0.0053,-0.0054,-0.006,-0.0073,-0.006,-0.0103,-0.0079,-0.014,-0.0164,-0.0179,-0.0216,-0.0218,-0.0192,-0.0248,-0.0248,-0.0211,-0.0146,-0.0161,-0.0155,-0.0211,-0.021,-0.0209,-0.0135,0,0.0016,0.004,0.0017,0.0043,0.0053,0.0017,0.002,0.0004,-0.0019,-0.0008,-0.0052,-0.0054,-0.0132,-0.0134,-0.0151,-0.0177,-0.0172,-0.0208,-0.018,-0.0179,-0.019,-0.0147,-0.0138,-0.0073,-0.0128,-0.0127,-0.0126,0,0.0059,0.007,0.01,0.011,0.0112,0.0119,0.0131,0.013,0.0119,0.0105,0.009,0.0053,0.0039,-0.0027,-0.005,-0.0068,-0.0103,-0.0126,-0.0124,-0.0144,-0.0181,-0.0108,-0.0057,-0.014,-0.0115,-0.0116,-0.0116,0,0.0121,0.0133,0.0165,0.0165,0.0163,0.0178,0.0181,0.0169,0.0186,0.0188,0.021,0.0171,0.0175,0.0123,0.004,0.0003,0.0034,-0.0021,-0.0058,-0.0059,-0.0047,-0.0049,-0.0066,-0.0022,-0.0022,-0.0022,-0.0022,0,0.0173,0.0199,0.02,0.0218,0.0264,0.0244,0.0293,0.0284,0.0303,0.0351,0.0279,0.0317,0.0211,0.0197,0.0109,0.0061,0.0088,-0.003,-0.0037,-0.0035,-0.0037,-0.0108,-0.0171,-0.0019,-0.002,-0.0021,-0.0021,0,0.0232,0.0229,0.0269,0.0284,0.0293,0.0331,0.0364,0.0401,0.0406,0.0477,0.0486,0.045,0.043,0.0334,0.027,0.0164,0.0065,0.0084,0.0101,0.0092,-0.0051,-0.0113,-0.013,-0.0165,0.006,0.006,0.006,0,0.0263,0.029,0.0325,0.0356,0.0363,0.0412,0.0445,0.0454,0.0501,0.0563,0.0614,0.0608,0.0623,0.0525,0.0351,0.0235,0.0117,0.0137,0.0048,-0.0036,-0.0111,-0.016,-0.0193,0.0089,0.0089,0.009,0.009,0,0.0324,0.0335,0.0368,0.0425,0.0468,0.0521,0.0575,0.0629,0.0667,0.0739,0.0826,0.085,0.0748,0.0621,0.043,0.0325,0.0071,0.0136,0.005,-0.0082,-0.0135,-0.018,0.0025,0.0092,0.0092,0.0092,0.0092,0.0092,0.0369,0.0402,0.0442,0.0499,0.055,0.0619,0.0677,0.0755,0.0856,0.0969,0.0989,0.1056,0.0842,0.0583,0.043,0.0123,0.01,0.0007,-0.0053,-0.0089,-0.0153,0.0061,0.0104,0.0104,0.0104,0.0104,0.0104,0,0.0417,0.045,0.0509,0.0572,0.0637,0.065,0.0754,0.0824,0.096,0.1079,0.117,0.1106,0.0873,0.0589,0.0171,-0.0035,-0.0117,-0.015,-0.0217,-0.0237,-0.0033,-0.0064,-0.0056,-0.0056,-0.0056,-0.0056,-0.0056,-0.0056,0.0442,0.0499,0.0523,0.0629,0.0679,0.0764,0.0827,0.0939,0.1041,0.1168,0.1207,0.1219,0.0982,0.0325,-0.0115,-0.0213,-0.0361,-0.0393,-0.0465,-0.0338,-0.0328,-0.0319,-0.0363,-0.0417,-0.0418,-0.0636,-0.0639,-0.0641]}],[{"header":{"parameterUnit":"m.s-1","parameterCategory":2,"la1":30.2991,"la2":30.254,"lo1":-89.0895,"lo2":-89.0444,"dy":0.0017,"dx":0.0017,"nx":28,"ny":28,"refTime":"2025-12-15T03:00:00:Z","depth":"2","parameterNumber":2,"parameterNumberName":"U-component_of_CURRENTS"},"data":[0,0,0,0,0,0,0,0,0,0,0,0,0,0,0,0,0,0,0,0,0,0,0,0,0,0,0,0,0,0,0,0,0,0,0,0,0,0,0,0,0,0,0,0,0,0,0,0,0,0,0,0,0,0,0,0,0,0,0.2096,0.2096,0,0.2114,0.2114,0.2113,0.2113,0.2113,0.2114,0.2114,0.2106,0.2105,0.2105,0,0,0,0,0,0,0,0,0,0,0,0,0,0.2077,0.2076,0.2096,0.2097,0.2097,0.2114,0.2114,0.2113,0.2113,0.2113,0.2114,0.2114,0.2106,0.2105,0.2105,0,0,0,0,0,0,0,0,0,0,0,0,0,0.2082,0.2076,0.2096,0.2104,0.2106,0.2114,0.2114,0.2113,0.2113,0.2113,0.2114,0.2114,0.2106,0.2105,0.2105,0.2088,0,0,0.2102,0.2102,0,0,0,0,0,0,0,0,0.2082,0.2082,0.2102,0.2104,0.2105,0.2118,0.2104,0.2106,0.2113,0.2103,0.2114,0.2115,0.2111,0.211,0.2103,0.2087,0.2087,0.2102,0.2101,0.2101,0.2101,0,0,0,0,0,0,0,0.2081,0.2082,0.2096,0.2103,0.2105,0.2114,0.2114,0.2104,0.2098,0.2104,0.2105,0.2118,0.2111,0.2104,0.2103,0.2087,0.2102,0.2101,0.2101,0.21,0.2152,0.2154,0,0,0,0,0,0,0.2091,0.2081,0.2096,0.2097,0.2103,0.2114,0.2114,0.2108,0.2099,0.21,0.2118,0.2118,0.2105,0.2104,0.2103,0.2143,0.2101,0.21,0.21,0.215,0.2152,0.2155,0,0,0,0,0,0,0.2091,0.2092,0.2095,0.2096,0.2098,0.2114,0.2107,0.2108,0.2117,0.2111,0.211,0.2129,0.2105,0.2104,0.2113,0.2141,0.21,0.2099,0.2148,0.2151,0.2153,0.2186,0,0,0,0,0,0,0.2089,0.2091,0.2099,0.2096,0.2099,0.2109,0.2107,0.2108,0.2127,0.2127,0.212,0.2119,0.2106,0.2115,0.2113,0.2139,0.2098,0.2146,0.2149,0.2153,0.2182,0.2189,0.2195,0,0,0,0,0,0.2088,0.2093,0.2099,0.2102,0.2106,0.211,0.2111,0.212,0.2127,0.213,0.2133,0.212,0.2137,0.2115,0.2112,0.2139,0.2144,0.2148,0.2152,0.2179,0.2188,0.2195,0,0,0,0,0,0,0.2083,0.2095,0.21,0.2107,0.2115,0.2113,0.2123,0.213,0.2132,0.2139,0.2128,0.2126,0.2151,0.2143,0.212,0.217,0.2145,0.2149,0.2166,0.2174,0.2181,0.2192,0.2098,0,0,0,0,0,0.2089,0.2094,0.2106,0.2109,0.2117,0.2122,0.2131,0.2138,0.214,0.2143,0.2143,0.2152,0.2163,0.2167,0.2172,0.2185,0.2185,0.2209,0.2215,0.2221,0.2232,0.2261,0.2271,0.2169,0.2168,0.2168,0,0,0.209,0.2095,0.21,0.211,0.2113,0.213,0.2126,0.2141,0.2153,0.2141,0.2158,0.2171,0.2174,0.2196,0.2207,0.2192,0.2248,0.2226,0.223,0.2239,0.2267,0.2276,0.2285,0.2171,0.2171,0.217,0,0,0.2092,0.2095,0.2107,0.2114,0.2134,0.2142,0.2153,0.2165,0.2169,0.2188,0.2193,0.2224,0.223,0.2243,0.2249,0.2296,0.2283,0.2308,0.2343,0.2372,0.238,0.2387,0.2386,0.2393,0.2309,0.2309,0.2309,0,0.21,0.2103,0.2111,0.2122,0.2136,0.2152,0.2171,0.2173,0.219,0.2207,0.2202,0.2261,0.2254,0.2298,0.2316,0.2309,0.2316,0.2306,0.2378,0.2386,0.2392,0.2389,0.2397,0.2311,0.2311,0.2311,0.231,0,0.2103,0.2117,0.212,0.2141,0.216,0.2171,0.2191,0.2215,0.2234,0.2248,0.23,0.2306,0.2344,0.2355,0.2343,0.2402,0.2388,0.2381,0.2352,0.2404,0.2398,0.2405,0.2314,0.2313,0.2313,0.2312,0,0,0.2099,0.2121,0.2126,0.2136,0.217,0.218,0.2218,0.2256,0.228,0.2318,0.2358,0.2394,0.2415,0.2426,0.2431,0.2459,0.2497,0.2444,0.2444,0.2431,0.2547,0.2482,0.2482,0.2506,0.2508,0.251,0.2517,0,0.2103,0.2119,0.214,0.2168,0.218,0.2216,0.2246,0.2286,0.2313,0.2353,0.2396,0.2431,0.2433,0.2458,0.249,0.2506,0.252,0.2495,0.2509,0.2509,0.2435,0.249,0.2281,0.2266,0.2523,0.2524,0.2525,0,0.2102,0.2116,0.2137,0.2177,0.2188,0.2212,0.2272,0.2302,0.2367,0.2399,0.2466,0.248,0.2547,0.2526,0.2591,0.2579,0.2565,0.2569,0.2569,0.2505,0.2458,0.226,0.2268,0.2536,0.2535,0.2534,0.2534,0,0.2079,0.2115,0.2128,0.2136,0.2188,0.2214,0.2256,0.2319,0.2353,0.2432,0.2466,0.2544,0.2583,0.2614,0.2623,0.2611,0.2676,0.2651,0.2577,0.257,0.2393,0.2369,0.2678,0.2678,0.2678,0.2678,0.2678,0,0.2061,0.2075,0.2113,0.2117,0.2152,0.2198,0.2243,0.2303,0.2381,0.2426,0.2483,0.2523,0.2609,0.2642,0.2645,0.2643,0.2693,0.2596,0.2579,0.2397,0.2374,0.2612,0.2604,0.2678,0.2678,0.2678,0.2678,0,0.2023,0.2045,0.2064,0.2116,0.2136,0.2162,0.2243,0.2271,0.2356,0.2418,0.2449,0.2534,0.2583,0.2631,0.268,0.2657,0.2664,0.2635,0.2407,0.2364,0.2527,0.2521,0.2557,0.2555,0.2554,0.2552,0.2551,0,0.2004,0.2001,0.2053,0.2066,0.2085,0.2132,0.2166,0.2265,0.2297,0.2409,0.2429,0.2498,0.2516,0.257,0.2558,0.2554,0.2614,0.2345,0.2285,0.254,0.2521,0.2517,0.2514,0.2052,0.2047,0.2042,0.2039,0,0.1966,0.1976,0.1997,0.2017,0.2043,0.2075,0.2127,0.2154,0.2262,0.2292,0.2331,0.2353,0.2407,0.2315,0.2331,0.2302,0.2339,0.2258,0.2593,0.2123,0.2066,0.2046,0.2059,0.2001,0.2005,0.2008,0.201,0.2011,0.1936,0.1934,0.1945,0.1963,0.1992,0.1996,0.1983,0.202,0.2043,0.2059,0.2163,0.2122,0.2153,0.2062,0.1998,0.196,0.2123,0.2019,0.203,0.2047,0.1995,0.194,0.184,0.1842,0.1845,0.1847,0.1848,0,0.1875,0.1877,0.1886,0.1889,0.1873,0.1919,0.1934,0.1883,0.1838,0.1883,0.1876,0.1718,0.165,0.1692,0.157,0.157,0.1547,0.1505,0.1448,0.1487,0.1522,0.1443,0.1141,0.1138,0.1136,0.1134,0,0,0.1839,0.1814,0.1816,0.1763,0.1767,0.1695,0.1677,0.1612,0.1603,0.1516,0.1479,0.1577,0.1648,0.1371,0.133,0.1215,0.1344,0.1168,0.1738,0.1712,0.1744,0.1824,0.1747,0,0,0,0,0]},{"header":{"parameterUnit":"m.s-1","parameterCategory":2,"la1":30.2991,"la2":30.254,"lo1":-89.0895,"lo2":-89.0444,"dy":0.0017,"dx":0.0017,"nx":28,"ny":28,"refTime":"2025-12-15T03:00:00:Z","depth":"2","parameterNumber":3,"parameterNumberName":"V-component_of_CURRENTS"},"data":[0,0,0,0,0,0,0,0,0,0,0,0,0,0,0,0,0,0,0,0,0,0,0,0,0,0,0,0,0,0,0,0,0,0,0,0,0,0,0,0,0,0,0,0,0,0,0,0,0,0,0,0,0,0,0,0,0,0,0.0205,0.0204,0,0.017,0.017,0.017,0.0144,0.0143,0.0143,0.0143,0.0113,0.0112,0.0112,0,0,0,0,0,0,0,0,0,0,0,0,0,0.0196,0.0197,0.0205,0.0204,0.0204,0.017,0.017,0.017,0.0144,0.0143,0.0143,0.0143,0.0113,0.0113,0.0112,0,0,0,0,0,0,0,0,0,0,0,0,0,0.0186,0.0197,0.0205,0.0186,0.0184,0.017,0.017,0.017,0.0144,0.0143,0.0143,0.0142,0.0113,0.0113,0.0112,0.0117,0,0,0.011,0.0109,0,0,0,0,0,0,0,0,0.0186,0.0186,0.0189,0.0187,0.0185,0.016,0.0156,0.0152,0.0144,0.016,0.0143,0.0142,0.0129,0.0127,0.0123,0.0116,0.0114,0.011,0.0109,0.0109,0.0109,0,0,0,0,0,0,0,0.0187,0.0187,0.0192,0.0189,0.0186,0.0161,0.016,0.0155,0.0148,0.0159,0.0156,0.0151,0.0128,0.0123,0.0122,0.0114,0.011,0.0109,0.0108,0.0108,0.0085,0.0085,0,0,0,0,0,0,0.0193,0.0188,0.0193,0.0191,0.0183,0.0162,0.0161,0.0169,0.0148,0.0144,0.0152,0.015,0.0125,0.0123,0.0121,0.0126,0.0109,0.0108,0.0108,0.0086,0.0085,0.0085,0,0,0,0,0,0,0.0193,0.0194,0.0195,0.0187,0.0185,0.0163,0.0173,0.0169,0.0163,0.0143,0.0139,0.0149,0.0124,0.0122,0.0114,0.0125,0.0108,0.0107,0.0086,0.0086,0.0085,0.0137,0,0,0,0,0,0,0.0193,0.0195,0.0201,0.0188,0.0186,0.0192,0.0173,0.0168,0.016,0.0158,0.014,0.0136,0.0124,0.0115,0.0114,0.0123,0.0106,0.0086,0.0086,0.0085,0.0135,0.0138,0.0141,0,0,0,0,0,0.0193,0.0207,0.0202,0.0202,0.0196,0.0192,0.0189,0.0171,0.016,0.0163,0.0146,0.0137,0.0112,0.0115,0.0113,0.0123,0.0086,0.0086,0.0085,0.0134,0.0138,0.0141,0,0,0,0,0,0,0.0205,0.0205,0.0199,0.0212,0.0204,0.0187,0.0187,0.0174,0.0163,0.0159,0.014,0.0136,0.0132,0.0117,0.0121,0.0112,0.0096,0.0095,0.0133,0.0137,0.0139,0.0153,0.0106,0,0,0,0,0,0.0211,0.0224,0.0214,0.0224,0.0222,0.0205,0.0199,0.0188,0.0176,0.017,0.0156,0.0139,0.013,0.0125,0.0113,0.0113,0.0097,0.0114,0.0117,0.0119,0.0127,0.0114,0.0117,0.0084,0.0084,0.0084,0,0,0.0217,0.022,0.0225,0.0227,0.022,0.0225,0.0201,0.0197,0.0203,0.0169,0.0172,0.0151,0.0131,0.0129,0.0126,0.0118,0.0117,0.0119,0.0122,0.0128,0.0114,0.0117,0.012,0.0084,0.0084,0.0084,0,0,0.0237,0.024,0.0255,0.0254,0.0246,0.0239,0.0239,0.0224,0.0219,0.0216,0.0193,0.0179,0.0163,0.0153,0.0146,0.0157,0.0133,0.0146,0.0175,0.0162,0.0165,0.0168,0.0145,0.0145,0.0147,0.0148,0.0148,0,0.0242,0.0266,0.0257,0.027,0.0274,0.0249,0.0263,0.0257,0.024,0.0242,0.0222,0.0197,0.0178,0.0182,0.018,0.0167,0.0148,0.0168,0.0168,0.017,0.0172,0.0148,0.0147,0.015,0.015,0.0149,0.0149,0,0.0276,0.029,0.0299,0.0313,0.0315,0.0324,0.0314,0.0312,0.0298,0.0291,0.0285,0.0253,0.024,0.0227,0.0207,0.0209,0.0188,0.0176,0.0165,0.0179,0.0152,0.015,0.0153,0.0153,0.0152,0.0151,0,0,0.0299,0.032,0.0322,0.0339,0.0341,0.0349,0.0358,0.0366,0.038,0.0351,0.0365,0.0335,0.0311,0.03,0.0269,0.0252,0.0242,0.0219,0.0217,0.0207,0.0204,0.0184,0.018,0.0229,0.0229,0.0229,0.0178,0,0.0327,0.0368,0.0368,0.0402,0.0422,0.0409,0.0425,0.0426,0.0421,0.0426,0.039,0.0388,0.0342,0.0332,0.031,0.0263,0.0241,0.0256,0.0183,0.0181,0.017,0.0179,0.0196,0.0152,0.0177,0.0176,0.0176,0,0.036,0.0386,0.0427,0.0458,0.0465,0.0478,0.0504,0.0516,0.0515,0.0511,0.0496,0.0463,0.0435,0.039,0.0321,0.0331,0.0272,0.0229,0.0226,0.0191,0.0159,0.0142,0.0149,0.0173,0.0174,0.0174,0.0174,0,0.0391,0.0427,0.0466,0.0477,0.0503,0.0517,0.0531,0.0541,0.0569,0.0564,0.0576,0.0531,0.0515,0.0439,0.0341,0.0331,0.026,0.0237,0.0162,0.0159,0.0152,0.0149,0.0188,0.0188,0.0188,0.0188,0.0188,0,0.0428,0.0457,0.0483,0.0505,0.0553,0.0556,0.0605,0.0611,0.0634,0.0678,0.0622,0.0636,0.0527,0.0468,0.0367,0.0263,0.028,0.0171,0.0149,0.0168,0.0167,0.0169,0.0167,0.0186,0.0187,0.0187,0.0187,0,0.0456,0.0473,0.052,0.0556,0.0569,0.0605,0.0657,0.0697,0.0706,0.0758,0.0758,0.0721,0.0645,0.0524,0.0404,0.0309,0.0203,0.0158,0.0181,0.0164,0.01,0.0102,0.0072,0.0071,0.007,0.007,0.0069,0,0.0478,0.0506,0.0558,0.0594,0.0611,0.0663,0.0702,0.0731,0.0782,0.0815,0.0846,0.0787,0.0757,0.0567,0.0394,0.0219,0.0195,0.0113,0.0098,0.0109,0.009,0.0093,0.0096,0.0103,0.0103,0.0102,0.0102,0,0.0521,0.0535,0.0575,0.0644,0.0693,0.0754,0.0813,0.0862,0.0905,0.0943,0.0976,0.095,0.0778,0.0607,0.0369,0.0252,0.0142,0.0102,0.0117,0.0131,0.0134,0.0117,0.0119,0.01,0.01,0.0101,0.0101,0.0101,0.0551,0.0585,0.0635,0.07,0.076,0.0832,0.0885,0.0951,0.1026,0.1071,0.1058,0.1014,0.0834,0.0525,0.0329,0.0122,0.0133,0.0052,0.0054,0.0056,0.0071,0.0072,0.0029,0.0028,0.0028,0.0028,0.0028,0,0.0594,0.0628,0.0691,0.0765,0.0827,0.0853,0.0951,0.0997,0.1078,0.1107,0.1116,0.0937,0.0757,0.0544,0.024,0.006,0.0055,-0.0,0.0032,0.0036,0.0039,0.0053,0.0006,0.0005,0.0004,0.0004,0,0,0.062,0.0678,0.0702,0.0801,0.0852,0.0933,0.0985,0.1048,0.1088,0.11,0.1073,0.1034,0.0802,0.0575,0.0339,0.0166,0.0138,0.0133,0.0171,0.024,0.0245,0.009,0.0119,0,0,0,0,0]}],[{"header":{"parameterUnit":"m.s-1","parameterCategory":2,"la1":30.2991,"la2":30.254,"lo1":-89.0895,"lo2":-89.0444,"dy":0.0017,"dx":0.0017,"nx":28,"ny":28,"refTime":"2025-12-15T03:00:00:Z","depth":"4","parameterNumber":2,"parameterNumberName":"U-component_of_CURRENTS"},"data":[0,0,0,0,0,0,0,0,0,0,0,0,0,0,0,0,0,0,0,0,0,0,0,0,0,0,0,0,0,0,0,0,0,0,0,0,0,0,0,0,0,0,0,0,0,0,0,0,0,0,0,0,0,0,0,0,0,0,0.112,0.112,0,0.1147,0.1147,0.1147,0.1178,0.1179,0.1179,0.118,0.1222,0.1223,0.1223,0,0,0,0,0,0,0,0,0,0,0,0,0,0.1118,0.1118,0.112,0.112,0.1121,0.1147,0.1147,0.1147,0.1178,0.1179,0.1179,0.118,0.1222,0.1223,0.1223,0,0,0,0,0,0,0,0,0,0,0,0,0,0.1129,0.1118,0.112,0.1139,0.1141,0.1146,0.1147,0.1147,0.1178,0.1179,0.118,0.118,0.1221,0.1222,0.1223,0.1214,0,0,0.1226,0.1227,0,0,0,0,0,0,0,0,0.1128,0.1129,0.1136,0.1138,0.114,0.116,0.1162,0.1171,0.1178,0.1164,0.118,0.1181,0.1202,0.1205,0.1208,0.1216,0.1218,0.1227,0.1227,0.1228,0.1228,0,0,0,0,0,0,0,0.1127,0.1128,0.113,0.1137,0.1139,0.1155,0.1157,0.1164,0.1179,0.1165,0.1168,0.1171,0.1204,0.1207,0.1209,0.1219,0.1226,0.1227,0.1228,0.1228,0.1308,0.131,0,0,0,0,0,0,0.1122,0.1127,0.1129,0.1131,0.1136,0.1154,0.1156,0.1153,0.1178,0.1183,0.117,0.1172,0.1205,0.1208,0.1211,0.1267,0.1228,0.1228,0.1229,0.1307,0.1309,0.131,0,0,0,0,0,0,0.1122,0.1122,0.1128,0.113,0.1132,0.1153,0.1149,0.1153,0.118,0.1182,0.1187,0.1196,0.1205,0.1209,0.1244,0.1266,0.1229,0.123,0.1305,0.1307,0.131,0.1338,0,0,0,0,0,0,0.1122,0.1122,0.1134,0.113,0.1132,0.1144,0.1148,0.1153,0.1179,0.1183,0.1205,0.1208,0.1206,0.1243,0.1245,0.1267,0.1231,0.1303,0.1306,0.1309,0.1335,0.1341,0.1346,0,0,0,0,0,0.1122,0.1126,0.1134,0.1136,0.1142,0.1145,0.1148,0.1165,0.118,0.1192,0.1216,0.1209,0.1263,0.1245,0.1247,0.127,0.1302,0.1305,0.1309,0.1332,0.134,0.1346,0,0,0,0,0,0,0.1132,0.113,0.1138,0.1143,0.1152,0.1151,0.1169,0.1178,0.1206,0.1222,0.1224,0.1229,0.1269,0.1269,0.1249,0.1304,0.1283,0.1287,0.13,0.1307,0.1312,0.1319,0.1231,0,0,0,0,0,0.1139,0.1145,0.1144,0.1154,0.1159,0.117,0.118,0.1192,0.1207,0.1221,0.1239,0.1263,0.1281,0.1294,0.1311,0.1336,0.1343,0.1356,0.1361,0.1365,0.1375,0.1407,0.1415,0.1322,0.1322,0.1322,0,0,0.1147,0.1148,0.1153,0.1158,0.1168,0.1177,0.1179,0.12,0.1218,0.1221,0.1266,0.1284,0.1294,0.1326,0.1344,0.1331,0.1396,0.137,0.1373,0.138,0.1411,0.142,0.1428,0.1324,0.1324,0.1323,0,0,0.1157,0.1167,0.1175,0.1182,0.12,0.1203,0.1214,0.1231,0.1253,0.1289,0.13,0.1334,0.1363,0.1374,0.1381,0.1427,0.1425,0.1438,0.1467,0.1498,0.1506,0.1513,0.1529,0.1537,0.1439,0.1439,0.1439,0,0.1174,0.1174,0.118,0.1188,0.12,0.1216,0.1229,0.1247,0.1279,0.1307,0.1313,0.1377,0.1384,0.1419,0.1438,0.1438,0.1455,0.1437,0.1504,0.1511,0.1518,0.1533,0.1541,0.144,0.144,0.144,0.144,0,0.1176,0.1191,0.1197,0.1212,0.1226,0.1241,0.126,0.1294,0.1326,0.1349,0.1409,0.1425,0.1464,0.1471,0.1468,0.152,0.1516,0.1507,0.1483,0.1529,0.1542,0.155,0.1443,0.1442,0.1442,0.1441,0,0,0.1176,0.1197,0.1202,0.1215,0.1242,0.1249,0.1291,0.1328,0.1364,0.1411,0.1459,0.1497,0.1522,0.1533,0.1538,0.1563,0.1616,0.1561,0.1561,0.1569,0.1685,0.1569,0.1567,0.1623,0.1625,0.1626,0.1673,0,0.1181,0.1197,0.121,0.1237,0.1245,0.1279,0.1311,0.1355,0.14,0.1452,0.149,0.154,0.1539,0.1567,0.1594,0.1615,0.1641,0.1604,0.1647,0.1649,0.1533,0.1574,0.1632,0.168,0.1681,0.1683,0.1684,0,0.1173,0.1186,0.121,0.1247,0.1257,0.1283,0.1344,0.1378,0.1453,0.1494,0.1557,0.1589,0.1646,0.1632,0.1698,0.168,0.1692,0.17,0.1702,0.159,0.1548,0.1627,0.1699,0.1698,0.1696,0.1695,0.1694,0,0.1149,0.1185,0.1206,0.1217,0.126,0.1297,0.1334,0.1404,0.1444,0.1536,0.1578,0.1646,0.1691,0.1725,0.1752,0.1739,0.181,0.1788,0.1693,0.1685,0.1762,0.1754,0.1834,0.1834,0.1834,0.1834,0.1834,0,0.1128,0.1149,0.1203,0.1211,0.1251,0.1294,0.1354,0.1404,0.1482,0.1528,0.1606,0.1645,0.1722,0.1766,0.1777,0.176,0.1835,0.1706,0.1693,0.1772,0.1765,0.1767,0.1759,0.1836,0.1835,0.1835,0.1835,0,0.109,0.1124,0.1152,0.1213,0.1239,0.1273,0.1361,0.1395,0.1483,0.1546,0.1581,0.1673,0.1727,0.1777,0.1832,0.178,0.178,0.1755,0.1841,0.1831,0.1628,0.1621,0.165,0.1646,0.1643,0.164,0.1638,0,0.1063,0.1074,0.1148,0.1168,0.1202,0.1264,0.1298,0.1391,0.1425,0.1543,0.1557,0.1652,0.1698,0.1681,0.1744,0.1754,0.1732,0.1717,0.1665,0.1627,0.1611,0.1609,0.1606,0.1633,0.1632,0.1632,0.1631,0,0.1015,0.1057,0.1082,0.1125,0.1167,0.1201,0.1264,0.128,0.1377,0.1474,0.1496,0.1523,0.1575,0.1609,0.1631,0.1634,0.1717,0.1685,0.169,0.1641,0.1607,0.1594,0.1595,0.162,0.1622,0.1623,0.1623,0,0.0989,0.0997,0.1039,0.1066,0.1114,0.1116,0.1159,0.119,0.1237,0.1361,0.1369,0.1462,0.1557,0.1547,0.1569,0.1563,0.1534,0.1472,0.1488,0.1501,0.143,0.1363,0.1296,0,0,0,0,0,0.0956,0.0953,0.0972,0.0991,0.103,0.1056,0.1118,0.1159,0.126,0.1238,0.1297,0.1337,0.1365,0.1419,0.1383,0.1506,0.1543,0.1456,0.148,0.1561,0.1574,0.1503,0,0,0,0,0,0,0.093,0.0951,0.0947,0.092,0.0919,0.0947,0.0982,0.1044,0.1037,0.1147,0.1172,0.1256,0.1309,0.1377,0.1361,0.1376,0.136,0.1522,0.1518,0.1554,0.1565,0.1575,0.1507,0,0,0,0,0]},{"header":{"parameterUnit":"m.s-1","parameterCategory":2,"la1":30.2991,"la2":30.254,"lo1":-89.0895,"lo2":-89.0444,"dy":0.0017,"dx":0.0017,"nx":28,"ny":28,"refTime":"2025-12-15T03:00:00:Z","depth":"4","parameterNumber":3,"parameterNumberName":"V-component_of_CURRENTS"},"data":[0,0,0,0,0,0,0,0,0,0,0,0,0,0,0,0,0,0,0,0,0,0,0,0,0,0,0,0,0,0,0,0,0,0,0,0,0,0,0,0,0,0,0,0,0,0,0,0,0,0,0,0,0,0,0,0,0,0,0.0246,0.0246,0,0.0237,0.0237,0.0237,0.0232,0.0232,0.0232,0.0232,0.0224,0.0224,0.0223,0,0,0,0,0,0,0,0,0,0,0,0,0,0.022,0.022,0.0246,0.0246,0.0246,0.0238,0.0237,0.0237,0.0232,0.0232,0.0232,0.0232,0.0224,0.0224,0.0223,0,0,0,0,0,0,0,0,0,0,0,0,0,0.0223,0.0221,0.0246,0.0242,0.0242,0.0238,0.0237,0.0237,0.0232,0.0232,0.0232,0.0232,0.0224,0.0224,0.0223,0.0221,0,0,0.0222,0.0222,0,0,0,0,0,0,0,0,0.0223,0.0224,0.0243,0.0243,0.0242,0.0236,0.0225,0.0232,0.0232,0.0235,0.0232,0.0232,0.0228,0.0228,0.0225,0.0221,0.022,0.0222,0.0222,0.0222,0.0222,0,0,0,0,0,0,0,0.0223,0.0224,0.0242,0.0243,0.0242,0.0228,0.0229,0.0226,0.0231,0.0235,0.0234,0.0234,0.0228,0.0226,0.0225,0.022,0.0222,0.0222,0.0222,0.0222,0.0219,0.0219,0,0,0,0,0,0,0.0227,0.0224,0.0242,0.0242,0.0233,0.0229,0.023,0.0238,0.0231,0.0231,0.0234,0.0234,0.0226,0.0225,0.0225,0.0236,0.0222,0.0222,0.0221,0.0219,0.0219,0.0219,0,0,0,0,0,0,0.0226,0.0229,0.0243,0.0232,0.0233,0.023,0.0238,0.0237,0.024,0.0231,0.023,0.0238,0.0226,0.0225,0.0225,0.0235,0.0222,0.0221,0.0219,0.0219,0.0219,0.0249,0,0,0,0,0,0,0.0226,0.0229,0.0237,0.0233,0.0234,0.0246,0.0238,0.0237,0.024,0.0239,0.0234,0.0233,0.0226,0.0226,0.0225,0.0234,0.0221,0.0219,0.0219,0.0219,0.0248,0.025,0.0252,0,0,0,0,0,0.0225,0.0238,0.0238,0.024,0.0246,0.0246,0.0245,0.0242,0.024,0.0244,0.0238,0.0233,0.0227,0.0226,0.0225,0.0234,0.0218,0.0219,0.0219,0.0247,0.0249,0.0252,0,0,0,0,0,0,0.023,0.0238,0.0239,0.0253,0.0252,0.0245,0.0249,0.0246,0.0244,0.0245,0.0235,0.0234,0.0238,0.023,0.0229,0.0233,0.0222,0.0222,0.0243,0.0246,0.0248,0.0254,0.0221,0,0,0,0,0,0.0236,0.025,0.0249,0.0261,0.0261,0.0256,0.0256,0.0254,0.025,0.025,0.0246,0.024,0.0237,0.0237,0.0233,0.0235,0.0214,0.024,0.0242,0.0244,0.0247,0.0221,0.0221,0.022,0.022,0.022,0,0,0.024,0.0247,0.0254,0.0263,0.0261,0.0268,0.0256,0.026,0.0267,0.0249,0.0258,0.0249,0.024,0.0243,0.0244,0.0238,0.0231,0.0244,0.0246,0.0248,0.0221,0.0221,0.0221,0.022,0.022,0.022,0,0,0.0254,0.0263,0.0276,0.0279,0.0281,0.0279,0.0282,0.0279,0.028,0.0283,0.0273,0.0269,0.0266,0.026,0.0257,0.0267,0.0244,0.0267,0.0283,0.0258,0.0258,0.0258,0.0224,0.0221,0.0267,0.0268,0.0268,0,0.0258,0.0278,0.0278,0.029,0.0297,0.0287,0.03,0.0298,0.0296,0.0298,0.029,0.0282,0.0274,0.0277,0.028,0.0273,0.0251,0.0276,0.0261,0.026,0.026,0.0225,0.0221,0.0269,0.0269,0.0269,0.0269,0,0.028,0.0296,0.0303,0.0319,0.0325,0.0334,0.0333,0.0336,0.0334,0.033,0.0331,0.0315,0.031,0.0306,0.0297,0.0291,0.0274,0.0267,0.0256,0.0262,0.0225,0.022,0.0271,0.0271,0.027,0.027,0,0,0.029,0.0314,0.0317,0.0331,0.0343,0.035,0.0361,0.0369,0.0379,0.0367,0.0374,0.0363,0.0351,0.0346,0.0331,0.0309,0.028,0.0288,0.0286,0.0257,0.0216,0.0206,0.0199,0.027,0.027,0.0269,0.019,0,0.0306,0.0337,0.0345,0.0374,0.0389,0.0389,0.0402,0.0407,0.0406,0.0408,0.0386,0.0388,0.0368,0.0366,0.034,0.0299,0.027,0.0302,0.0213,0.021,0.0203,0.0195,0.0268,0.0186,0.0185,0.0184,0.0183,0,0.0324,0.0345,0.0377,0.0406,0.0413,0.0429,0.045,0.0462,0.0459,0.0457,0.0448,0.0429,0.0404,0.0382,0.0308,0.0328,0.0276,0.0236,0.0232,0.0211,0.0192,0.018,0.0174,0.0175,0.0175,0.0176,0.0177,0,0.0332,0.0366,0.0397,0.0407,0.0436,0.0452,0.0469,0.0478,0.0497,0.0492,0.0497,0.0459,0.0443,0.0375,0.0296,0.03,0.0204,0.0196,0.0134,0.0132,0.0152,0.0153,0.0137,0.0137,0.0137,0.0137,0.0138,0,0.0347,0.0371,0.0405,0.0422,0.0461,0.0474,0.0513,0.052,0.0536,0.0558,0.0527,0.0527,0.0441,0.0379,0.03,0.0201,0.0203,0.0134,0.0113,0.0165,0.0168,0.0147,0.015,0.0134,0.0135,0.0136,0.0136,0,0.0352,0.0373,0.0411,0.0451,0.0468,0.0497,0.0551,0.0577,0.0586,0.0612,0.0612,0.0574,0.0495,0.0397,0.0281,0.0212,0.0115,0.0078,0.0134,0.0118,0.0056,0.0061,-0.0001,-0.0002,-0.0003,-0.0004,-0.0004,0,0.0357,0.0378,0.0434,0.0464,0.0487,0.0536,0.0571,0.0601,0.0632,0.064,0.065,0.0589,0.0548,0.0374,0.0271,0.011,0.0091,0.003,0.0049,0.0057,0.0043,0.0049,0.0054,-0.0006,-0.0006,-0.0006,-0.0006,0,0.0371,0.0392,0.0425,0.0486,0.0534,0.0586,0.0638,0.0661,0.0691,0.0698,0.0676,0.0593,0.0502,0.0374,0.0249,0.0137,0.0065,0.0021,0.0022,0.0039,0.0051,0.0039,0.0045,-0.0009,-0.0009,-0.0009,-0.0008,0,0.0383,0.0408,0.0455,0.0507,0.0566,0.0618,0.0646,0.0678,0.0704,0.0708,0.0697,0.0604,0.0552,0.0388,0.0274,0.0161,0.0133,0.009,0.0087,0.0089,0.0142,0.0172,0.0128,0,0,0,0,0,0.0397,0.0426,0.0474,0.0531,0.0587,0.0622,0.0682,0.0706,0.0729,0.0715,0.0707,0.0622,0.0461,0.0398,0.0282,0.0256,0.0111,0.0115,0.0059,-0.0025,-0.0022,0.0025,0,0,0,0,0,0,0.0407,0.0453,0.0472,0.0539,0.0579,0.0644,0.0682,0.0702,0.0695,0.0698,0.0618,0.0581,0.0429,0.0523,0.0275,0.0243,0.0188,0.0045,0.0042,-0.0027,-0.0024,-0.0021,0.0028,0,0,0,0,0]}]]